Time,TemperatureF,DewpointF,PressureIn,WindDirection,WindDirectionDegrees,WindSpeedMPH,WindSpeedGustMPH,Humidity,HourlyPrecipIn,Conditions,Clouds,dailyrainin,SoftwareType,DateUTC
2013-03-07 00:06:00,38.2,36.0,29.80,NE,44,28.0,39.0,93,0.00,,,0.00,weatherlink.com 1.10,2013-03-07 05:06:00,
2013-03-07 00:20:00,38.1,36.0,29.79,NNE,33,26.0,38.0,92,0.00,,,0.00,weatherlink.com 1.10,2013-03-07 05:20:00,
2013-03-07 00:36:00,38.2,36.0,29.78,NE,41,28.0,36.0,93,0.00,,,0.00,weatherlink.com 1.10,2013-03-07 05:36:00,
2013-03-07 00:51:00,38.1,36.0,29.78,NE,41,25.0,39.0,93,0.00,,,0.00,weatherlink.com 1.10,2013-03-07 05:51:00,
2013-03-07 01:06:00,38.0,37.0,29.78,NE,43,24.0,39.0,94,0.00,,,0.00,weatherlink.com 1.10,2013-03-07 06:06:00,
2013-03-07 01:21:00,37.9,36.0,29.78,NE,51,26.0,38.0,94,0.00,,,0.00,weatherlink.com 1.10,2013-03-07 06:21:00,
2013-03-07 01:36:00,37.9,36.0,29.78,NNE,33,31.0,38.0,94,0.00,,,0.00,weatherlink.com 1.10,2013-03-07 06:36:00,
2013-03-07 01:51:00,37.9,36.0,29.76,NE,49,30.0,39.0,94,0.00,,,0.00,weatherlink.com 1.10,2013-03-07 06:51:00,
2013-03-07 02:06:00,37.8,36.0,29.76,NE,41,26.0,37.0,94,0.00,,,0.00,weatherlink.com 1.10,2013-03-07 07:06:00,
2013-03-07 02:21:00,37.5,36.0,29.75,NE,43,27.0,39.0,94,0.00,,,0.00,weatherlink.com 1.10,2013-03-07 07:21:00,
2013-03-07 02:36:00,37.5,36.0,29.76,NE,37,29.0,39.0,94,0.00,,,0.00,weatherlink.com 1.10,2013-03-07 07:36:00,
2013-03-07 02:51:00,37.4,36.0,29.75,NNE,33,25.0,37.0,94,0.00,,,0.00,weatherlink.com 1.10,2013-03-07 07:51:00,
2013-03-07 03:06:00,36.9,35.0,29.76,NE,46,24.0,38.0,94,0.00,,,0.00,weatherlink.com 1.10,2013-03-07 08:06:00,
2013-03-07 03:21:00,36.9,36.0,29.76,NNE,33,22.0,36.0,95,0.00,,,0.00,weatherlink.com 1.10,2013-03-07 08:21:00,
2013-03-07 03:36:00,36.8,36.0,29.76,NE,49,31.0,34.0,95,0.00,,,0.00,weatherlink.com 1.10,2013-03-07 08:36:00,
2013-03-07 03:51:00,37.1,36.0,29.76,NE,53,16.0,39.0,94,0.00,,,0.00,weatherlink.com 1.10,2013-03-07 08:51:00,
2013-03-07 04:06:00,37.1,36.0,29.76,NE,49,29.0,39.0,95,0.00,,,0.00,weatherlink.com 1.10,2013-03-07 09:06:00,
2013-03-07 04:21:00,37.0,36.0,29.75,NNE,30,23.0,37.0,94,0.00,,,0.00,weatherlink.com 1.10,2013-03-07 09:21:00,
2013-03-07 04:36:00,37.3,36.0,29.75,NE,41,25.0,38.0,95,0.00,,,0.00,weatherlink.com 1.10,2013-03-07 09:36:00,
2013-03-07 04:51:00,37.2,36.0,29.75,NNE,31,34.0,41.0,94,0.00,,,0.00,weatherlink.com 1.10,2013-03-07 09:51:00,
2013-03-07 05:06:00,36.9,36.0,29.76,NE,41,19.0,38.0,95,0.00,,,0.00,weatherlink.com 1.10,2013-03-07 10:06:00,
2013-03-07 05:21:00,36.8,36.0,29.75,NE,46,26.0,39.0,95,0.00,,,0.00,weatherlink.com 1.10,2013-03-07 10:21:00,
2013-03-07 05:36:00,36.8,36.0,29.76,NE,39,35.0,38.0,95,0.00,,,0.00,weatherlink.com 1.10,2013-03-07 10:36:00,
2013-03-07 05:51:00,36.9,36.0,29.76,NNE,32,25.0,38.0,95,0.00,,,0.00,weatherlink.com 1.10,2013-03-07 10:51:00,
2013-03-07 06:06:00,36.9,36.0,29.76,NE,44,31.0,39.0,95,0.00,,,0.00,weatherlink.com 1.10,2013-03-07 11:06:00,
2013-03-07 06:21:00,36.9,36.0,29.76,NNE,28,28.0,38.0,95,0.00,,,0.00,weatherlink.com 1.10,2013-03-07 11:21:00,
2013-03-07 06:36:00,37.1,36.0,29.77,NE,46,27.0,41.0,95,0.00,,,0.00,weatherlink.com 1.10,2013-03-07 11:36:00,
2013-03-07 06:51:00,37.1,36.0,29.77,NE,43,31.0,39.0,95,0.00,,,0.00,weatherlink.com 1.10,2013-03-07 11:51:00,
2013-03-07 07:06:00,37.2,36.0,29.77,NNE,30,25.0,36.0,95,0.00,,,0.00,weatherlink.com 1.10,2013-03-07 12:06:00,
2013-03-07 07:21:00,37.3,36.0,29.77,NNE,27,22.0,40.0,94,0.00,,,0.00,weatherlink.com 1.10,2013-03-07 12:21:00,
2013-03-07 07:36:00,37.4,36.0,29.77,NNE,32,26.0,40.0,94,0.00,,,0.00,weatherlink.com 1.10,2013-03-07 12:36:00,
2013-03-07 07:51:00,37.5,36.0,29.77,NE,43,22.0,38.0,94,0.00,,,0.00,weatherlink.com 1.10,2013-03-07 12:51:00,
2013-03-07 08:06:00,37.8,36.0,29.77,NNE,22,30.0,40.0,94,0.00,,,0.00,weatherlink.com 1.10,2013-03-07 13:06:00,
2013-03-07 08:21:00,38.0,37.0,29.76,NE,44,25.0,38.0,94,0.00,,,0.00,weatherlink.com 1.10,2013-03-07 13:21:00,
2013-03-07 08:36:00,37.9,36.0,29.77,NE,41,36.0,41.0,94,0.00,,,0.00,weatherlink.com 1.10,2013-03-07 13:36:00,
2013-03-07 08:51:00,37.8,36.0,29.77,NNE,31,35.0,39.0,94,0.00,,,0.00,weatherlink.com 1.10,2013-03-07 13:51:00,
2013-03-07 09:06:00,37.8,36.0,29.76,NE,39,31.0,39.0,94,0.00,,,0.00,weatherlink.com 1.10,2013-03-07 14:06:00,
2013-03-07 09:36:00,37.4,36.0,29.77,NE,39,25.0,37.0,94,0.00,,,0.00,weatherlink.com 1.10,2013-03-07 14:36:00,
2013-03-07 09:51:00,37.2,36.0,29.77,NNE,33,30.0,41.0,95,0.00,,,0.00,weatherlink.com 1.10,2013-03-07 14:51:00,
2013-03-07 10:06:00,37.2,36.0,29.77,NNE,30,24.0,38.0,95,0.00,,,0.00,weatherlink.com 1.10,2013-03-07 15:06:00,
2013-03-07 10:21:00,36.9,36.0,29.76,NE,39,33.0,40.0,95,0.00,,,0.00,weatherlink.com 1.10,2013-03-07 15:21:00,
2013-03-07 10:36:00,36.9,36.0,29.76,NE,39,26.0,38.0,95,0.00,,,0.00,weatherlink.com 1.10,2013-03-07 15:36:00,
2013-03-07 10:51:00,36.8,36.0,29.77,NE,46,29.0,42.0,95,0.00,,,0.00,weatherlink.com 1.10,2013-03-07 15:51:00,
2013-03-07 11:06:00,36.5,35.0,29.76,NE,34,32.0,38.0,95,0.00,,,0.00,weatherlink.com 1.10,2013-03-07 16:06:00,
2013-03-07 11:21:00,36.1,35.0,29.77,NNE,29,31.0,41.0,95,0.00,,,0.00,weatherlink.com 1.10,2013-03-07 16:21:00,
2013-03-07 11:36:00,36.1,35.0,29.77,NE,39,31.0,37.0,96,0.00,,,0.00,weatherlink.com 1.10,2013-03-07 16:36:00,
2013-03-07 11:51:00,35.9,35.0,29.78,NNE,28,32.0,37.0,96,0.00,,,0.00,weatherlink.com 1.10,2013-03-07 16:51:00,
2013-03-07 12:06:00,36.6,36.0,29.77,NE,39,32.0,36.0,96,0.00,,,0.00,weatherlink.com 1.10,2013-03-07 17:06:00,
2013-03-07 12:21:00,36.9,36.0,29.77,NE,39,33.0,39.0,95,0.00,,,0.00,weatherlink.com 1.10,2013-03-07 17:21:00,
2013-03-07 12:36:00,37.0,36.0,29.76,NE,34,27.0,41.0,95,0.00,,,0.00,weatherlink.com 1.10,2013-03-07 17:36:00,
2013-03-07 12:51:00,36.9,36.0,29.76,NNE,29,26.0,42.0,95,0.00,,,0.00,weatherlink.com 1.10,2013-03-07 17:51:00,
2013-03-07 13:06:00,36.7,35.0,29.75,NNE,18,34.0,42.0,95,0.00,,,0.00,weatherlink.com 1.10,2013-03-07 18:06:00,
2013-03-07 13:21:00,36.6,35.0,29.76,NNE,15,31.0,42.0,95,0.00,,,0.00,weatherlink.com 1.10,2013-03-07 18:21:00,
2013-03-07 13:36:00,36.5,35.0,29.76,NNE,14,31.0,39.0,95,0.00,,,0.00,weatherlink.com 1.10,2013-03-07 18:36:00,
2013-03-07 13:51:00,36.5,35.0,29.76,NNE,25,31.0,40.0,95,0.00,,,0.00,weatherlink.com 1.10,2013-03-07 18:51:00,
2013-03-07 14:07:00,36.4,35.0,29.76,NNE,25,33.0,41.0,95,0.00,,,0.00,weatherlink.com 1.10,2013-03-07 19:07:00,
2013-03-07 14:22:00,36.4,35.0,29.76,NNE,15,30.0,39.0,95,0.00,,,0.00,weatherlink.com 1.10,2013-03-07 19:22:00,
2013-03-07 14:37:00,36.2,35.0,29.76,NNE,20,34.0,39.0,95,0.00,,,0.00,weatherlink.com 1.10,2013-03-07 19:37:00,
2013-03-07 14:52:00,36.4,35.0,29.76,NNE,16,31.0,42.0,95,0.00,,,0.00,weatherlink.com 1.10,2013-03-07 19:52:00,
2013-03-07 15:07:00,36.3,35.0,29.76,NNE,33,28.0,42.0,95,0.00,,,0.00,weatherlink.com 1.10,2013-03-07 20:07:00,
2013-03-07 15:22:00,36.0,35.0,29.77,NNE,19,29.0,41.0,95,0.00,,,0.00,weatherlink.com 1.10,2013-03-07 20:22:00,
2013-03-07 15:37:00,35.7,35.0,29.77,NE,34,34.0,42.0,96,0.00,,,0.00,weatherlink.com 1.10,2013-03-07 20:37:00,
2013-03-07 15:52:00,35.6,35.0,29.78,North,351,30.0,41.0,96,0.00,,,0.00,weatherlink.com 1.10,2013-03-07 20:52:00,
2013-03-07 16:07:00,35.2,34.0,29.79,North,8,31.0,41.0,96,0.00,,,0.00,weatherlink.com 1.10,2013-03-07 21:07:00,
2013-03-07 16:22:00,35.3,34.0,29.79,NNE,25,28.0,37.0,96,0.00,,,0.00,weatherlink.com 1.10,2013-03-07 21:22:00,
2013-03-07 16:37:00,35.6,35.0,29.79,NNE,23,25.0,37.0,97,0.00,,,0.00,weatherlink.com 1.10,2013-03-07 21:37:00,
2013-03-07 16:52:00,35.6,35.0,29.78,NNE,16,34.0,38.0,96,0.00,,,0.00,weatherlink.com 1.10,2013-03-07 21:52:00,
2013-03-07 17:07:00,35.6,35.0,29.79,North,11,31.0,39.0,96,0.00,,,0.00,weatherlink.com 1.10,2013-03-07 22:07:00,
2013-03-07 17:22:00,35.6,35.0,29.79,NNE,23,34.0,35.0,96,0.00,,,0.00,weatherlink.com 1.10,2013-03-07 22:22:00,
2013-03-07 17:37:00,35.6,35.0,29.79,NNE,32,31.0,41.0,96,0.00,,,0.00,weatherlink.com 1.10,2013-03-07 22:37:00,
2013-03-07 18:07:00,35.8,35.0,29.79,NNE,16,29.0,43.0,96,0.00,,,0.00,weatherlink.com 1.10,2013-03-07 23:07:00,
2013-03-07 18:22:00,36.0,35.0,29.79,NNE,14,28.0,41.0,96,0.00,,,0.00,weatherlink.com 1.10,2013-03-07 23:22:00,
2013-03-07 18:37:00,35.8,35.0,29.80,NNE,20,33.0,42.0,96,0.00,,,0.00,weatherlink.com 1.10,2013-03-07 23:37:00,
2013-03-07 18:52:00,35.7,35.0,29.80,NNE,30,32.0,42.0,96,0.00,,,0.00,weatherlink.com 1.10,2013-03-07 23:52:00,
2013-03-07 19:07:00,35.5,35.0,29.80,NNE,30,35.0,41.0,96,0.00,,,0.00,weatherlink.com 1.10,2013-03-08 00:07:00,
2013-03-07 19:22:00,35.3,35.0,29.82,NNE,23,26.0,39.0,97,0.00,,,0.00,weatherlink.com 1.10,2013-03-08 00:22:00,
2013-03-07 19:37:00,35.6,35.0,29.82,NNE,19,30.0,40.0,96,0.00,,,0.00,weatherlink.com 1.10,2013-03-08 00:37:00,
2013-03-07 19:52:00,35.8,35.0,29.81,NNE,22,26.0,39.0,96,0.00,,,0.00,weatherlink.com 1.10,2013-03-08 00:52:00,
2013-03-07 20:07:00,35.9,35.0,29.81,NNE,16,28.0,36.0,96,0.00,,,0.00,weatherlink.com 1.10,2013-03-08 01:07:00,
2013-03-07 20:22:00,36.0,35.0,29.81,NNE,18,28.0,37.0,96,0.00,,,0.00,weatherlink.com 1.10,2013-03-08 01:22:00,
2013-03-07 20:37:00,36.0,35.0,29.80,NNE,23,28.0,38.0,96,0.00,,,0.00,weatherlink.com 1.10,2013-03-08 01:37:00,
2013-03-07 20:52:00,36.1,35.0,29.80,NNE,23,31.0,34.0,96,0.00,,,0.00,weatherlink.com 1.10,2013-03-08 01:52:00,
2013-03-07 21:07:00,36.6,36.0,29.80,NNE,26,23.0,40.0,96,0.00,,,0.00,weatherlink.com 1.10,2013-03-08 02:07:00,
2013-03-07 21:22:00,36.6,36.0,29.80,NNE,32,29.0,37.0,96,0.00,,,0.00,weatherlink.com 1.10,2013-03-08 02:22:00,
2013-03-07 21:37:00,36.6,36.0,29.80,NNE,33,34.0,35.0,96,0.00,,,0.00,weatherlink.com 1.10,2013-03-08 02:37:00,
2013-03-07 22:07:00,36.2,35.0,29.80,NE,39,20.0,34.0,96,0.00,,,0.00,weatherlink.com 1.10,2013-03-08 03:07:00,
2013-03-07 22:22:00,36.0,35.0,29.79,NNE,23,26.0,35.0,96,0.00,,,0.00,weatherlink.com 1.10,2013-03-08 03:22:00,
2013-03-07 22:37:00,36.2,35.0,29.79,NNE,28,25.0,36.0,96,0.00,,,0.00,weatherlink.com 1.10,2013-03-08 03:37:00,
2013-03-07 22:52:00,36.3,35.0,29.79,NNE,32,32.0,36.0,96,0.00,,,0.00,weatherlink.com 1.10,2013-03-08 03:52:00,
2013-03-07 23:22:00,36.2,35.0,29.78,NNE,26,23.0,36.0,96,0.00,,,0.00,weatherlink.com 1.10,2013-03-08 04:22:00,
2013-03-07 23:37:00,36.2,35.0,29.78,NNE,20,28.0,36.0,96,0.00,,,0.00,weatherlink.com 1.10,2013-03-08 04:37:00,
2013-03-07 23:52:00,35.7,35.0,29.77,NNE,15,27.0,37.0,96,0.00,,,0.00,weatherlink.com 1.10,2013-03-08 04:52:00,